Location: Wildlife_Club
(35.6000°N, 81.4330°W)
Time: 05:27:49
(UTC-04:00)

A-11 Canister half - Pass Details

Date: 16 August 2020
Orbit: 1514 x 1686 km, 47.2° (Epoch: 23 September)

Event Time Altitude Azimuth Distance (km) Brightness Sun altitude
Rises 22:38:30 0° 302° (WNW) 4,817 12.9 -26.5°
Reaches altitude 10° 22:41:37 10° 305° (NW) 3,852 12.1 -27.0°
Maximum altitude 22:51:30 69° 29° (NNE) 1,758 9.2 -28.4°
Enters shadow 22:55:14 43° 96° (E) 2,201 9.4 -29.0°
